Back to catalog

GAOFEN 9

AliveScienceSSO
NORAD 40894·PAYLOAD·🇨🇳 China

Launched Sep 14, 2015 from Jiuquan Satellite Launch Center

Loading…

Next Passes (next 24 hours)

TLE

FreshSource: Space-Track

Epoch: Sep 14, 2026, 14:25 UTC

1 40894U 15047A   26257.60087275  .00000619  00000-0  81946-4 0  9997
2 40894  97.6222 289.2139 0026608 203.6480 156.3514 14.83019874593449

Track GAOFEN 9 in real time with AllMySat

Download on the App Store